Location: Barrio de Buenos Aires
(28.4500°N, 16.2667°W)
Time: 21:05:13
(UTC+00:00)

Cosmos 1371 Rocket - Pass Details

Date: 24 January 2020
Orbit: 753 x 790 km, 74.0° (Epoch: 20 February)

Event Time Altitude Azimuth Distance (km) Brightness Sun altitude
Rises 19:55:28 0° 177° (S) 3,188 7.3 -17.1°
Reaches altitude 10° 19:57:55 10° 170° (S) 2,266 6.5 -17.7°
Maximum altitude 20:02:43 41° 101° (E) 1,077 4.3 -18.7°
Enters shadow 20:03:54 36° 68° (ENE) 1,185 4.4 -19.0°
